[[{"header":{"parameterUnit":"m.s-1","parameterCategory":1,"la1":30.2991,"la2":30.254,"lo1":-89.0895,"lo2":-89.0444,"dy":0.0017,"dx":0.0017,"nx":28,"ny":28,"refTime":"2024-08-31T09:00:00:Z","depth":0,"parameterNumber":2,"parameterNumberName":"U-component_of_WINDS"},"data":[0,0,0,0,0,0,0,0,0,0,0,0,0,0,0,0,0,0,0,0,0,0,0,0,0,0,0,0,0,0,0,0,0,0,0,0,0,0,0,0,0,0,0,0,0,0,0,0,0,0,0,0,0,0,0,0,0,0,-3.4955,-3.4955,0,-3.4941,-3.4941,-3.4941,-3.4845,-3.4843,-3.484,-3.4838,-3.4825,-3.4827,-3.4828,0,0,0,0,0,0,0,0,0,0,0,0,0,-3.49,-3.4902,-3.4955,-3.4955,-3.4954,-3.4941,-3.4941,-3.494,-3.4846,-3.4843,-3.484,-3.4837,-3.4824,-3.4826,-3.4829,0,0,0,0,0,0,0,0,0,0,0,0,0,-3.4909,-3.4902,-3.4955,-3.4905,-3.4901,-3.4941,-3.4941,-3.494,-3.4846,-3.4843,-3.4839,-3.4836,-3.4824,-3.4826,-3.4829,-3.4916,0,0,-3.4837,-3.4838,0,0,0,0,0,0,0,0,-3.4908,-3.4911,-3.4913,-3.4909,-3.4904,-3.4891,-3.4916,-3.4932,-3.4847,-3.4867,-3.4838,-3.4834,-3.485,-3.485,-3.4855,-3.4915,-3.4914,-3.4838,-3.4839,-3.484,-3.4841,0,0,0,0,0,0,0,-3.4908,-3.4911,-3.4949,-3.4913,-3.4907,-3.4884,-3.4882,-3.4919,-3.4878,-3.4865,-3.4858,-3.4858,-3.4847,-3.4853,-3.4854,-3.4914,-3.4837,-3.484,-3.4842,-3.4843,-3.5046,-3.5049,0,0,0,0,0,0,-3.4914,-3.4911,-3.495,-3.4949,-3.4898,-3.4888,-3.4885,-3.4899,-3.4877,-3.4871,-3.4861,-3.4853,-3.485,-3.4851,-3.4853,-3.4954,-3.484,-3.4843,-3.4844,-3.5042,-3.5047,-3.5051,0,0,0,0,0,0,-3.4913,-3.4918,-3.495,-3.4928,-3.493,-3.4893,-3.4909,-3.49,-3.4906,-3.4874,-3.4867,-3.4874,-3.4847,-3.485,-3.4901,-3.4952,-3.4844,-3.4847,-3.5038,-3.5043,-3.5049,-3.5157,0,0,0,0,0,0,-3.4912,-3.4919,-3.4951,-3.4929,-3.4932,-3.4998,-3.4912,-3.4903,-3.4911,-3.4901,-3.4885,-3.4879,-3.4845,-3.4898,-3.4904,-3.4954,-3.4849,-3.5033,-3.504,-3.5047,-3.5148,-3.5165,-3.518,0,0,0,0,0,-3.4911,-3.4982,-3.4953,-3.4958,-3.4971,-3.5001,-3.5002,-3.4961,-3.4916,-3.4948,-3.4928,-3.488,-3.4946,-3.4904,-3.491,-3.4962,-3.5029,-3.5038,-3.5046,-3.5141,-3.5162,-3.5179,0,0,0,0,0,0,-3.501,-3.4978,-3.4946,-3.5012,-3.501,-3.4985,-3.5024,-3.4984,-3.4995,-3.4986,-3.4934,-3.4932,-3.4991,-3.4981,-3.4935,-3.5045,-3.4979,-3.499,-3.505,-3.5069,-3.5084,-3.5086,-3.4851,0,0,0,0,0,-3.504,-3.5067,-3.5037,-3.5098,-3.5099,-3.5063,-3.5074,-3.5042,-3.5038,-3.5037,-3.502,-3.5018,-3.5039,-3.5053,-3.507,-3.5146,-3.5142,-3.5185,-3.5201,-3.5214,-3.5224,-3.5265,-3.5284,-3.5079,-3.5078,-3.5078,0,0,-3.5101,-3.5087,-3.5107,-3.5118,-3.5113,-3.5142,-3.5062,-3.5096,-3.5118,-3.5042,-3.509,-3.5078,-3.5072,-3.5137,-3.5165,-3.5131,-3.528,-3.5225,-3.5236,-3.5238,-3.5275,-3.5295,-3.5312,-3.5084,-3.5083,-3.5082,0,0,-3.5229,-3.522,-3.5271,-3.5268,-3.5261,-3.5236,-3.5249,-3.523,-3.5219,-3.5266,-3.521,-3.5235,-3.5271,-3.527,-3.5274,-3.5403,-3.5359,-3.5409,-3.5492,-3.5532,-3.5549,-3.5563,-3.561,-3.5627,-3.5419,-3.5419,-3.5419,0,-3.5306,-3.5348,-3.5302,-3.534,-3.5347,-3.528,-3.5332,-3.5331,-3.533,-3.5337,-3.5299,-3.5343,-3.5335,-3.5399,-3.5431,-3.5436,-3.5449,-3.5411,-3.555,-3.5564,-3.5576,-3.562,-3.5638,-3.5425,-3.5425,-3.5424,-3.5424,0,-3.5444,-3.5474,-3.5516,-3.5517,-3.5528,-3.5573,-3.5535,-3.5552,-3.552,-3.55,-3.555,-3.5537,-3.5551,-3.5564,-3.5533,-3.5624,-3.5604,-3.5559,-3.5491,-3.5603,-3.5643,-3.566,-3.5434,-3.5432,-3.543,-3.5429,0,0,-3.5633,-3.5609,-3.5625,-3.5626,-3.5614,-3.5636,-3.5678,-3.5692,-3.5708,-3.571,-3.5745,-3.5778,-3.5736,-3.5741,-3.5709,-3.5745,-3.5849,-3.5695,-3.5695,-3.5725,-3.595,-3.5985,-3.6005,-3.582,-3.5823,-3.5825,-3.5951,0,-3.5756,-3.5826,-3.5787,-3.5863,-3.5891,-3.5828,-3.5865,-3.5862,-3.5845,-3.5866,-3.5846,-3.5871,-3.5814,-3.5816,-3.5849,-3.583,-3.5894,-3.582,-3.5853,-3.5854,-3.5857,-3.6026,-3.6062,-3.6181,-3.5967,-3.5969,-3.5971,0,-3.5908,-3.5917,-3.5996,-3.598,-3.599,-3.6024,-3.6034,-3.6055,-3.6051,-3.6036,-3.6042,-3.6002,-3.6043,-3.5977,-3.6033,-3.5984,-3.5995,-3.5988,-3.5992,-3.5993,-3.592,-3.6033,-3.6218,-3.6237,-3.5996,-3.5994,-3.5992,0,-3.6039,-3.6071,-3.6123,-3.6125,-3.6107,-3.6133,-3.6127,-3.6119,-3.613,-3.6139,-3.6146,-3.616,-3.6168,-3.6179,-3.6145,-3.6099,-3.6206,-3.6137,-3.6196,-3.6197,-3.6221,-3.622,-3.6411,-3.6228,-3.6227,-3.6227,-3.6227,0,-3.6181,-3.6232,-3.6182,-3.6214,-3.6269,-3.6224,-3.6281,-3.6268,-3.6262,-3.6291,-3.6238,-3.6266,-3.6218,-3.6242,-3.6215,-3.6267,-3.627,-3.626,-3.6252,-3.6265,-3.6267,-3.6272,-3.6263,-3.6232,-3.6231,-3.623,-3.6229,0,-3.6337,-3.6305,-3.6357,-3.6337,-3.6333,-3.6375,-3.6358,-3.6387,-3.6366,-3.6403,-3.6409,-3.6377,-3.6402,-3.6368,-3.639,-3.6372,-3.6443,-3.6423,-3.6445,-3.6439,-3.65,-3.6496,-3.6702,-3.6728,-3.6527,-3.6529,-3.6531,0,-3.6429,-3.6467,-3.6451,-3.6467,-3.6464,-3.6489,-3.6501,-3.6458,-3.6472,-3.6471,-3.6501,-3.6522,-3.6536,-3.658,-3.6559,-3.6576,-3.6556,-3.6627,-3.6558,-3.657,-3.6558,-3.6556,-3.6561,-3.6641,-3.6644,-3.6646,-3.6647,0,-3.6598,-3.658,-3.6598,-3.6612,-3.6627,-3.6635,-3.664,-3.6656,-3.6611,-3.663,-3.6655,-3.6667,-3.669,-3.6712,-3.6723,-3.6717,-3.6676,-3.6669,-3.6684,-3.6698,-3.6709,-3.6705,-3.6484,-3.6665,-3.6663,-3.6662,-3.6661,-3.666,-3.6725,-3.6756,-3.675,-3.6773,-3.6772,-3.6777,-3.6804,-3.6787,-3.6807,-3.6823,-3.6796,-3.6829,-3.6825,-3.6836,-3.6835,-3.6861,-3.683,-3.6851,-3.6856,-3.6863,-3.6872,-3.6705,-3.6863,-3.6862,-3.6861,-3.6861,-3.6861,0,-3.6891,-3.6884,-3.6905,-3.6914,-3.6932,-3.6891,-3.6894,-3.6912,-3.6941,-3.6941,-3.6957,-3.6987,-3.7008,-3.6989,-3.7007,-3.7031,-3.7012,-3.7037,-3.7035,-3.7035,-3.6898,-3.6884,-3.7052,-3.7052,-3.7052,-3.7052,-3.7052,-3.7052,-3.698,-3.7031,-3.7013,-3.7064,-3.7056,-3.7088,-3.7094,-3.7099,-3.7099,-3.7135,-3.7152,-3.714,-3.7132,-3.7149,-3.7167,-3.7161,-3.7171,-3.7203,-3.719,-3.7063,-3.7044,-3.7026,-3.7013,-3.7205,-3.7205,-3.7324,-3.7325,-3.7326]},{"header":{"parameterUnit":"m.s-1","parameterCategory":1,"la1":30.2991,"la2":30.254,"lo1":-89.0895,"lo2":-89.0444,"dy":0.0017,"dx":0.0017,"nx":28,"ny":28,"refTime":"2024-08-31T09:00:00:Z","depth":0,"parameterNumber":3,"parameterNumberName":"V-component_of_WINDS"},"data":[0,0,0,0,0,0,0,0,0,0,0,0,0,0,0,0,0,0,0,0,0,0,0,0,0,0,0,0,0,0,0,0,0,0,0,0,0,0,0,0,0,0,0,0,0,0,0,0,0,0,0,0,0,0,0,0,0,0,0.0257,0.0258,0,0.026,0.026,0.026,0.0257,0.0257,0.0256,0.0256,0.0259,0.026,0.026,0,0,0,0,0,0,0,0,0,0,0,0,0,0.0249,0.0249,0.0257,0.0258,0.0258,0.026,0.026,0.026,0.0257,0.0257,0.0256,0.0256,0.0259,0.026,0.026,0,0,0,0,0,0,0,0,0,0,0,0,0,0.0252,0.0249,0.0257,0.0256,0.0256,0.026,0.026,0.026,0.0257,0.0257,0.0256,0.0256,0.0259,0.0259,0.026,0.0266,0,0,0.0261,0.0261,0,0,0,0,0,0,0,0,0.0252,0.0253,0.0256,0.0256,0.0256,0.0258,0.0259,0.0262,0.0257,0.0256,0.0256,0.0256,0.0259,0.0259,0.026,0.0266,0.0266,0.0261,0.0261,0.0261,0.0261,0,0,0,0,0,0,0,0.0252,0.0253,0.0259,0.0256,0.0256,0.0255,0.0256,0.0259,0.0259,0.0256,0.0256,0.0257,0.0259,0.026,0.026,0.0266,0.0261,0.0261,0.0261,0.0261,0.0277,0.0277,0,0,0,0,0,0,0.0252,0.0252,0.0259,0.0259,0.0254,0.0256,0.0256,0.0258,0.0259,0.0259,0.0257,0.0256,0.026,0.026,0.0261,0.0268,0.0261,0.0261,0.0262,0.0277,0.0277,0.0278,0,0,0,0,0,0,0.0252,0.0252,0.0258,0.0255,0.0256,0.0256,0.0258,0.0258,0.0259,0.0259,0.0259,0.0258,0.0259,0.026,0.0265,0.0268,0.0262,0.0262,0.0277,0.0277,0.0277,0.0282,0,0,0,0,0,0,0.0251,0.0252,0.0255,0.0256,0.0256,0.0262,0.0258,0.0258,0.0259,0.0259,0.026,0.026,0.0259,0.0264,0.0265,0.0268,0.0262,0.0276,0.0277,0.0277,0.0282,0.0283,0.0284,0,0,0,0,0,0.0251,0.0256,0.0255,0.0255,0.0259,0.0263,0.0263,0.0262,0.026,0.0262,0.0262,0.026,0.0267,0.0265,0.0265,0.0269,0.0276,0.0277,0.0277,0.0282,0.0283,0.0284,0,0,0,0,0,0,0.0255,0.0256,0.0255,0.026,0.0261,0.0262,0.0265,0.0263,0.0265,0.0265,0.0264,0.0264,0.0269,0.0269,0.0266,0.0275,0.0271,0.0272,0.0274,0.0276,0.0276,0.0276,0.0262,0,0,0,0,0,0.0257,0.0259,0.026,0.0264,0.0265,0.0265,0.0266,0.0266,0.0267,0.0267,0.0268,0.0269,0.0272,0.0274,0.0276,0.0282,0.0282,0.0285,0.0286,0.0286,0.0287,0.0291,0.0292,0.0279,0.0279,0.0279,0,0,0.026,0.0261,0.0262,0.0265,0.0266,0.0269,0.0265,0.0269,0.0271,0.0268,0.0272,0.0273,0.0274,0.028,0.0282,0.028,0.0291,0.0287,0.0288,0.0288,0.0291,0.0292,0.0293,0.028,0.028,0.028,0,0,0.0267,0.0268,0.0272,0.0273,0.0274,0.0274,0.0275,0.0276,0.0276,0.0281,0.0279,0.0281,0.0286,0.0287,0.0289,0.0297,0.0295,0.0297,0.0302,0.0305,0.0306,0.0307,0.031,0.0311,0.0298,0.0298,0.0298,0,0.027,0.0275,0.0274,0.0277,0.0279,0.0276,0.028,0.0282,0.0284,0.0285,0.0283,0.0289,0.029,0.0295,0.0297,0.0298,0.03,0.0297,0.0306,0.0307,0.0308,0.0311,0.0312,0.0298,0.0298,0.0298,0.0298,0,0.0279,0.0282,0.0285,0.0288,0.029,0.0293,0.0293,0.0295,0.0294,0.0294,0.0299,0.03,0.0303,0.0304,0.0303,0.031,0.0309,0.0306,0.0303,0.0309,0.0312,0.0313,0.0299,0.0299,0.0299,0.0299,0,0,0.0289,0.0291,0.0292,0.0293,0.0295,0.0297,0.0301,0.0304,0.0306,0.0307,0.0311,0.0315,0.0313,0.0314,0.0314,0.0317,0.0323,0.0314,0.0314,0.0316,0.0331,0.0333,0.0334,0.0322,0.0322,0.0323,0.0331,0,0.0296,0.0303,0.0302,0.0308,0.0311,0.0309,0.0313,0.0314,0.0314,0.0317,0.0317,0.032,0.0318,0.0319,0.0321,0.0322,0.0326,0.0321,0.0325,0.0326,0.0325,0.0335,0.0337,0.0345,0.0332,0.0332,0.0332,0,0.0305,0.0308,0.0314,0.0316,0.0317,0.032,0.0323,0.0325,0.0327,0.0327,0.0329,0.0328,0.0332,0.0328,0.0334,0.0331,0.0332,0.0333,0.0333,0.0334,0.0329,0.0336,0.0347,0.0349,0.0334,0.0334,0.0334,0,0.0312,0.0317,0.0321,0.0322,0.0324,0.0327,0.0327,0.0329,0.0331,0.0333,0.0334,0.0337,0.0339,0.0341,0.0341,0.0338,0.0347,0.0343,0.0347,0.0347,0.0349,0.0349,0.0361,0.035,0.035,0.035,0.035,0,0.032,0.0324,0.0324,0.0327,0.0332,0.0331,0.0336,0.0337,0.0338,0.0341,0.034,0.0343,0.0342,0.0345,0.0345,0.035,0.035,0.0351,0.0351,0.0351,0.0351,0.0352,0.0352,0.035,0.035,0.035,0.035,0,0.0328,0.0328,0.0333,0.0335,0.0335,0.0339,0.034,0.0343,0.0343,0.0347,0.0348,0.0349,0.0352,0.0352,0.0356,0.0356,0.0362,0.0361,0.0362,0.0362,0.0366,0.0365,0.0379,0.0381,0.0368,0.0368,0.0369,0,0.0334,0.0337,0.0339,0.0341,0.0342,0.0345,0.0347,0.0347,0.0349,0.0351,0.0354,0.0357,0.036,0.0366,0.0366,0.037,0.0369,0.0373,0.0369,0.037,0.0369,0.0369,0.037,0.0374,0.0374,0.0375,0.0375,0,0.0343,0.0343,0.0346,0.0349,0.0352,0.0354,0.0356,0.0358,0.0357,0.036,0.0364,0.0366,0.037,0.0373,0.0376,0.0377,0.0376,0.0376,0.0377,0.0378,0.0378,0.0378,0.0364,0.0376,0.0376,0.0375,0.0375,0.0375,0.0351,0.0353,0.0355,0.0359,0.036,0.0362,0.0365,0.0366,0.0369,0.0372,0.0372,0.0376,0.0378,0.0382,0.0383,0.0387,0.0385,0.0387,0.0387,0.0388,0.0388,0.0377,0.0387,0.0387,0.0387,0.0387,0.0387,0,0.036,0.0362,0.0365,0.0368,0.037,0.0369,0.0371,0.0374,0.0377,0.0379,0.0382,0.0386,0.039,0.0391,0.0394,0.0397,0.0397,0.0398,0.0398,0.0398,0.0389,0.0388,0.0398,0.0398,0.0398,0.0398,0.0398,0.0398,0.0366,0.0371,0.0371,0.0377,0.0378,0.0382,0.0384,0.0386,0.0387,0.0392,0.0395,0.0396,0.0398,0.0401,0.0405,0.0405,0.0406,0.0408,0.0408,0.04,0.0399,0.0398,0.0397,0.0408,0.0408,0.0417,0.0417,0.0417]}]]